K6LCM-13 Weather Reports


time (UTC)temp
C
wind
direction
speed
KPH
gust
KPH
rain 1hr
cm
rain 24hr
cm
rain mn
cm
humidity
%
barometer
mb
20260505004154 16 239 11.3 19.3 0.00 0.00 0.00 75 1014.5
20260505003254 16 253 9.7 24.1 0.00 0.00 0.00 74 1014.5
20260505002354 16 251 14.5 22.5 0.00 0.00 0.00 72 1014.6
20260505001454 16 237 6.4 17.7 0.00 0.00 0.00 72 1014.5
20260505000554 16 240 11.3 17.7 0.00 0.00 0.00 73 1014.5
20260504235655 16 245 8.0 24.1 0.00 0.00 0.00 74 1014.7
20260504234754 16 227 9.7 24.1 0.00 0.00 0.00 76 1014.7
20260504233854 16 239 12.9 24.1 0.00 0.00 0.00 78 1014.6
20260504232954 16 252 8.0 20.9 0.00 0.00 0.00 79 1014.6
20260504231154 16 238 11.3 22.5 0.00 0.00 0.00 78 1014.7
20260504230254 16 251 9.7 24.1 0.00 0.00 0.00 78 1014.8
20260504225355 16 238 11.3 20.9 0.00 0.00 0.00 77 1014.9
20260504224454 16 245 8.0 20.9 0.00 0.00 0.00 77 1014.8
20260504221754 17 238 12.9 22.5 0.00 0.00 0.00 76 1015.1
20260504220854 17 229 16.1 22.5 0.00 0.00 0.00 72 1015.3
20260504215954 17 245 12.9 20.9 0.00 0.00 0.00 68 1015.3
20260504215054 17 240 9.7 19.3 0.00 0.00 0.00 67 1015.3
20260504214154 17 239 9.7 20.9 0.00 0.00 0.00 67 1015.4
20260504212354 17 237 12.9 24.1 0.00 0.00 0.00 70 1015.7
20260504211454 17 239 12.9 22.5 0.00 0.00 0.00 69 1015.7
20260504210554 17 240 8.0 25.7 0.00 0.00 0.00 72 1015.7
20260504204754 17 264 11.3 22.5 0.00 0.00 0.00 72 1015.7
20260504203854 17 249 11.3 24.1 0.00 0.00 0.00 71 1015.7
20260504202954 17 232 11.3 20.9 0.00 0.00 0.00 72 1015.7
20260504202054 17 262 14.5 24.1 0.00 0.00 0.00 70 1015.7
20260504201154 17 221 12.9 20.9 0.00 0.00 0.00 73 1015.7
20260504200254 17 228 9.7 22.5 0.00 0.00 0.00 73 1015.7
20260504195354 17 239 9.7 20.9 0.00 0.00 0.00 72 1015.7
20260504194454 17 241 12.9 22.5 0.00 0.00 0.00 72 1015.5
20260504193554 17 247 11.3 20.9 0.00 0.00 0.00 73 1015.7
20260504192524 17 232 11.3 20.9 0.00 0.00 0.00 76 1015.6
20260504191623 16 224 8.0 19.3 0.00 0.00 0.00 77 1015.7
20260504190724 17 227 11.3 20.9 0.00 0.00 0.00 75 1015.7
20260504185824 17 232 9.7 22.5 0.00 0.00 0.00 74 1015.6
20260504184924 17 238 9.7 19.3 0.00 0.00 0.00 73 1015.6
20260504184023 17 217 11.3 22.5 0.00 0.00 0.00 73 1015.7
20260504183124 17 221 11.3 19.3 0.00 0.00 0.00 74 1015.7
20260504182223 16 226 11.3 19.3 0.00 0.00 0.00 74 1015.7
20260504181323 17 211 9.7 16.1 0.00 0.00 0.00 72 1015.6
20260504180423 17 235 8.0 17.7 0.00 0.00 0.00 72 1015.5
20260504175524 17 218 9.7 20.9 0.00 0.00 0.00 72 1015.6
20260504174623 16 214 8.0 17.7 0.00 0.00 0.00 73 1015.4
20260504173723 17 245 9.7 19.3 0.00 0.00 0.00 73 1015.5
20260504172824 17 223 6.4 17.7 0.00 0.00 0.00 73 1015.2
20260504171923 17 231 6.4 16.1 0.00 0.00 0.00 70 1015.3
20260504171024 17 233 4.8 14.5 0.00 0.00 0.00 61 1015.1
20260504170124 17 215 6.4 14.5 0.00 0.00 0.00 62 1015.1
20260504160317 15 239 6.4 12.9 0.00 0.00 0.00 75 1015.1
20260504150917 14 309 1.6 4.8 0.00 0.00 0.00 72 1014.9
20260504140617 11 0 0.0 1.6 0.00 0.00 0.00 79 1014.3
20260504130304 12 286 1.6 6.4 0.00 0.00 0.00 81 1014.1
20260504110438 12 287 1.6 8.0 0.00 0.00 0.00 75 1013.8
20260504100138 12 277 1.6 4.8 0.00 0.00 0.00 76 1014.3
20260504081338 13 299 1.6 4.8 0.00 0.00 0.00 73 1015.1
20260504080438 13 274 1.6 4.8 0.00 0.00 0.00 74 1015.3
20260504070138 14 254 1.6 9.7 0.00 0.00 0.00 79 1014.7
20260504050438 16 299 4.8 14.5 0.00 0.00 0.00 61 1014.4
20260504045538 16 288 4.8 11.3 0.00 0.00 0.00 63 1014.6
20260504044638 16 288 1.6 11.3 0.00 0.00 0.00 65 1014.7
20260504043738 16 301 6.4 14.5 0.00 0.00 0.00 64 1014.7
20260504042838 16 301 3.2 9.7 0.00 0.00 0.00 65 1014.5
20260504041938 16 293 3.2 9.7 0.00 0.00 0.00 66 1014.1
20260504041038 16 302 4.8 14.5 0.00 0.00 0.00 66 1014.1
20260504040138 16 292 3.2 12.9 0.00 0.00 0.00 68 1014.1
20260504035238 16 281 1.6 6.4 0.00 0.00 0.00 72 1013.9
20260504034338 15 285 3.2 8.0 0.00 0.00 0.00 71 1013.7
20260504033437 15 0 0.0 3.2 0.00 0.00 0.00 78 1013.5
20260504032538 15 252 1.6 4.8 0.00 0.00 0.00 81 1013.7
20260504031638 15 0 0.0 3.2 0.00 0.00 0.00 81 1013.4
20260504030341 15 248 1.6 6.4 0.00 0.00 0.00 81 1013.4
20260504025442 15 243 1.6 4.8 0.00 0.00 0.00 81 1013.4
20260504024541 15 0 0.0 12.9 0.00 0.00 0.00 81 1013.3
20260504023642 15 244 3.2 9.7 0.00 0.00 0.00 81 1013.3
20260504022741 15 243 6.4 11.3 0.00 0.00 0.00 81 1013.3
20260504021842 15 257 4.8 11.3 0.00 0.00 0.00 81 1013.6
20260504020941 15 270 4.8 16.1 0.00 0.00 0.00 81 1013.3
20260504020042 15 255 4.8 12.9 0.00 0.00 0.00 81 1013.4
20260504015141 15 235 6.4 17.7 0.00 0.00 0.00 80 1013.6
20260504014242 15 252 6.4 14.5 0.00 0.00 0.00 78 1013.7
20260504013341 15 247 8.0 17.7 0.00 0.00 0.00 78 1013.3
20260504012442 15 238 4.8 17.7 0.00 0.00 0.00 78 1013.0
20260504011542 15 238 8.0 17.7 0.00 0.00 0.00 77 1013.4
20260504010641 15 235 8.0 16.1 0.00 0.00 0.00 76 1013.3
20260504005741 15 238 9.7 17.7 0.00 0.00 0.00 76 1013.4
20260504004841 16 249 6.4 17.7 0.00 0.00 0.00 78 1013.3